{"data":{"norad_id":38038,"epoch":"2026-05-25T04:37:14.121984Z","epoch_age_seconds":59140,"freshness":"FRESH","line1":"1 38038U 11079A   26145.19252456  .00000169  00000+0  69820-4 0  9996","line2":"2 38038  98.4075 212.9805 0006882  27.2821  65.2455 14.38192505755901","mean_motion":14.38192505,"eccentricity":0.0006882,"inclination_deg":98.4075,"raan_deg":212.9805,"arg_perigee_deg":27.2821,"mean_anomaly_deg":65.2455,"bstar":6.982e-5,"rev_number":75590,"period_min":100.12567823805,"perigee_km":759.56112232131,"apogee_km":769.39221577539,"semimajor_km":7142.6136690484,"source":"CELESTRAK","updated_at":"2026-05-25T13:38:12.780100Z"}}